Flag for India Weather past 2 weeks in Chittorgarh, Rajasthan, India

Now
93 °F

Haze.


Feels Like: 91 °F
Forecast: 74 / 100 °F
Wind: 5 mph from North

Location: Jaipur / Sanganer

Current Time: Mar 27, 2015 at 1:09:12 PM

Latest Report: Mar 27, 2015 at 12:00 PM


Visibility: 2 mi

Pressure: 30.01 "Hg

Humidity: 28%

Dew point: 55 °F

Location of ChittorgarhLocation

Historic Weather in Chittorgarh — Graph

°F

Chittorgarh temperature yesterday

Maximum temperature yesterday: 95 °F (at 2:00 PM)
Minimum temperature yesterday: 79 °F (at 6:00 AM)
Average temperature yesterday: 86 °F

Past Weeks' High & Low Weather Summary

 TemperatureHumidityPressure
High99 °F (Mar 25, 4:00 PM)100% (Mar 14, 1:00 PM)30.15 "Hg (Mar 14, 1:00 PM)
Low59 °F (Mar 15, 2:00 AM)17% (Mar 24, 3:30 PM)29.83 "Hg (Mar 24, 4:00 PM)
Average77 °F51%30.00 "Hg
* Reported Mar 12 11:00 AM — Mar 27 11:00 AM, Chittorgarh, Weather by CustomWeather, © 2015

Note: Actual official high and low records may vary slightly from our data, if they occured in-between our weather recording intervals... More about our weather records

Advertising

Chittorgarh weather history for previous 24 hours

 ConditionsComfort  
Time TempWeatherWind HumidityBarometerVisibility
11:00 AM
Fri, Mar 27
90 °FHaze.5 mph33%30.04 "Hg2 mi
10:00 AM88 °FHaze.3 mph33%30.04 "Hg2 mi
9:00 AM82 °FHaze.3 mph45%30.04 "Hg2 mi
8:00 AM77 °FHaze.No wind54%30.01 "Hg2 mi
7:00 AM72 °FScattered clouds.No wind65%30.01 "Hg2 mi
6:30 AM73 °FPartly cloudy.2 mph57%30.01 "Hg2 mi
6:00 AM73 °FPartly cloudy.3 mph57%29.98 "Hg2 mi
5:30 AM73 °FPartly cloudy.3 mph57%29.98 "Hg2 mi
5:00 AM73 °FPartly cloudy.7 mph61%29.98 "Hg2 mi
4:00 AM75 °FPartly cloudy.2 mph54%29.95 "Hg1 mi
3:00 AM75 °FPartly cloudy.3 mph57%29.98 "Hg1 mi
2:00 AM77 °FPartly cloudy.6 mph51%29.98 "Hg1 mi
1:00 AM77 °FPartly cloudy.10 mph47%30.01 "Hg1 mi
12:00 AM79 °FPartly cloudy.13 mph48%30.04 "Hg1 mi
11:00 PM
Thu, Mar 26
79 °FPartly cloudy.14 mph51%30.04 "Hg1 mi
10:00 PM82 °FPassing clouds.15 mph42%30.07 "Hg1 mi
9:30 PM84 °FPassing clouds.17 mph37%30.07 "Hg1 mi
9:00 PM86 °FPassing clouds.3 mph38%30.01 "Hg1 mi
8:00 PM88 °FPassing clouds.5 mph35%29.98 "Hg1 mi
6:00 PM93 °FScattered clouds.5 mph26%29.95 "Hg2 mi
5:00 PM95 °FPartly sunny.6 mph25%29.95 "Hg2 mi
4:00 PM95 °FPartly sunny.5 mph25%29.95 "Hg2 mi
3:00 PM95 °FScattered clouds.6 mph25%29.95 "Hg2 mi
2:00 PM95 °FScattered clouds.5 mph26%29.98 "Hg2 mi
1:00 PM93 °FScattered clouds.6 mph28%30.01 "Hg2 mi
Weather by CustomWeather, © 2015

See weather overviewHow to use our weather pages